Location: Newark
(48.7500°N, 4.6667°E)
Time: 16:16:12
(UTC+00:00)

ISS - Visible Passes

Search period start: 22 October 2019 00:00
Search period end: 01 November 2019 00:00
Orbit: 411 x 421 km, 51.6° (Epoch: 22 October)

Date Brightness Start Highest point End Pass type
(mag) Time Alt. Az. Time Alt. Az. Time Alt. Az.
23 Oct -0.8 05:37:24 10° S 05:39:29 15° SE 05:41:33 10° E visible
25 Oct -2.0 05:35:40 10° SSW 05:38:43 33° SE 05:41:47 10° E visible
26 Oct -1.4 04:47:35 10° SSW 04:50:15 22° SE 04:52:56 10° E visible
27 Oct -1.1 04:00:46 13° SSE 04:01:50 14° SE 04:03:45 10° ESE visible
27 Oct -3.4 05:34:43 10° WSW 05:38:05 67° SSE 05:41:26 10° ENE visible
28 Oct -2.9 04:47:33 21° SW 04:49:30 46° SSE 04:52:45 10° ENE visible
29 Oct -2.1 04:01:15 30° SE 04:01:15 30° SE 04:03:59 10° E visible
29 Oct -3.7 05:34:10 10° WSW 05:37:32 71° NNW 05:40:54 10° ENE visible
30 Oct -0.3 03:14:50 11° E 03:14:50 11° E 03:15:03 10° E visible
30 Oct -3.8 04:47:44 39° WSW 04:48:51 88° SSE 04:52:14 10° ENE visible
31 Oct -2.4 04:01:14 39° E 04:01:14 39° E 04:03:34 10° ENE visible
31 Oct -3.4 05:34:08 13° W 05:37:02 52° N 05:40:21 10° ENE visible
